Location: Nebraska Star Party
(42.6000°N, 100.8833°W)
Time: 13:51:52
(UTC-05:00)

Amateur Radio Satellites - All Passes

Search period start: 27 September 2016 13:21
Search period end: 28 September 2016 13:21
Location: Nebraska Star Party, 42.6000°N, 100.8833°W

Satellite Date Start Highest point End Downlink Frequencies (MHz)
Time Altitude Azimuth
YUBILEINY 27 Sep 13:23:54 13:29:12 17° 59° (ENE) 13:34:27 435.215
AIST 2 27 Sep 13:25:25 13:29:33 53° 53° (NE) 13:33:39 435.215
PHONESAT 2.4 27 Sep 13:28:10 13:31:02 47° 170° (S) 13:33:54 2401.200-2431.200
SPROUT 27 Sep 13:32:12 13:36:02 32° 97° (E) 13:39:51 437.525
M-CUBED/EXP-1 PRIME 27 Sep 13:34:37 13:37:24 25° 102° (ESE) 13:40:11 437.505
AISAT 27 Sep 13:35:02 13:39:26 66° 102° (ESE) 13:43:46 437.250
50 SAT 27 Sep 13:44:39 13:48:21 87° 103° (ESE) 13:52:00 437.505
UKube-1 27 Sep 13:45:04 13:49:06 37° 98° (E) 13:53:06 .
QB50P2 27 Sep 13:45:23 13:47:32 14° 269° (W) 13:49:42 145.880/145.840
POLYITAN 1 27 Sep 13:47:39 13:49:46 14° 269° (W) 13:51:52 437.675
PCSat 27 Sep 14:01:07 14:06:11 38° 51° (NE) 14:11:13 145.827
Oscar 19 27 Sep 14:02:54 14:08:02 64° 72° (ENE) 14:13:11 437.125/150
DX 1 27 Sep 14:12:26 14:16:47 82° 287° (WNW) 14:21:07 434.975-435.025
ESTCUBE 1 27 Sep 14:17:44 14:21:25 25° 294° (WNW) 14:25:04 437.505/2401.250
VELOX 1 27 Sep 14:18:53 14:23:05 44° 289° (WNW) 14:27:15 145.980
CUBEBUG 1 27 Sep 14:24:53 14:28:39 29° 292° (WNW) 14:32:23 437.445
JAS-2 27 Sep 14:28:38 14:33:07 19° 274° (W) 14:37:58 435.910
BUGSAT 1 27 Sep 14:31:33 14:33:07 12° 269° (W) 14:34:41 437.445
AUBIESAT-1 27 Sep 14:31:45 14:35:01 62° 290° (WNW) 14:38:18 437.475
Cosmos 2504 27 Sep 14:37:12 14:41:41 17° 63° (ENE) 14:46:16 435.465 / 435.565
TISAT 1 27 Sep 14:54:17 14:58:21 50° 100° (E) 15:02:24 437.305
ITAMSAT 1 27 Sep 14:55:50 15:00:10 28° 65° (ENE) 15:04:31 435.822/435.867
Gurwin Techsat 1B 27 Sep 14:56:24 15:01:43 88° 256° (WSW) 15:07:04 435.225
ITUPSAT 1 27 Sep 14:59:37 15:01:08 11° 89° (E) 15:02:40 437.325
PHONESAT 2.4 27 Sep 15:04:06 15:06:59 51° 187° (S) 15:09:52 2401.200-2431.200
AIST 2 27 Sep 15:05:04 15:07:36 16° 250° (WSW) 15:10:08 435.215
AO-7 27 Sep 15:05:58 15:13:09 34° 57° (ENE) 15:20:19 29.400- 29.500
SPROUT 27 Sep 15:08:27 15:11:48 23° 293° (WNW) 15:15:09 437.525
M-CUBED/EXP-1 PRIME 27 Sep 15:09:37 15:11:49 17° 298° (WNW) 15:14:00 437.505
SWISSCUBE 27 Sep 15:11:32 15:14:46 18° 92° (E) 15:18:00 437.505
AISAT 27 Sep 15:13:16 15:15:21 13° 299° (WNW) 15:17:25 437.250
Cosmos 2491 27 Sep 15:15:14 15:23:09 40° 86° (E) 15:31:08 435.465 / 435.565
YUBILEINY 27 Sep 15:18:49 15:27:34 79° 81° (E) 15:36:16 435.215
UKube-1 27 Sep 15:21:41 15:24:53 21° 295° (WNW) 15:28:05 .
BEESAT 27 Sep 15:24:14 15:27:54 21° 94° (E) 15:31:32 436.000
Oscar 19 27 Sep 15:44:34 15:47:46 16° 269° (W) 15:50:59 437.125/150
PCSat 27 Sep 15:44:40 15:49:30 33° 250° (WSW) 15:54:17 145.827
SO-50 27 Sep 15:59:35 16:04:02 38° 116° (ESE) 16:08:28 436.795
Cosmos 2504 27 Sep 16:28:38 16:36:05 87° 83° (E) 16:44:02 435.465 / 435.565
TISAT 1 27 Sep 16:31:11 16:33:35 15° 297° (WNW) 16:35:58 437.305
ITAMSAT 1 27 Sep 16:34:40 16:39:28 38° 262° (W) 16:44:18 435.822/435.867
ITUPSAT 1 27 Sep 16:34:42 16:39:32 79° 285° (WNW) 16:44:20 437.325
PHONESAT 2.4 27 Sep 16:40:29 16:42:47 20° 203° (SSW) 16:45:04 2401.200-2431.200
Gurwin Techsat 1B 27 Sep 16:41:12 16:42:24 11° 273° (W) 16:43:36 435.225
SWISSCUBE 27 Sep 16:48:11 16:52:50 51° 289° (WNW) 16:57:29 437.505
MOZHAYETS 4 27 Sep 16:54:04 16:58:13 31° 96° (E) 17:02:20
AO-7 27 Sep 16:57:17 17:05:29 60° 256° (WSW) 17:13:42 29.400- 29.500
BEESAT 27 Sep 17:01:19 17:05:50 42° 290° (WNW) 17:10:21 436.000
Cosmos 2491 27 Sep 17:11:27 17:19:49 47° 286° (WNW) 17:28:18 435.465 / 435.565
YUBILEINY 27 Sep 17:17:13 17:23:19 22° 281° (WNW) 17:29:25 435.215
KKS-1 27 Sep 17:22:22 17:26:29 37° 98° (E) 17:30:35 437.445
AIST 1 27 Sep 17:28:18 17:32:36 77° 82° (E) 17:36:51
GOMX 1 27 Sep 17:31:14 17:33:32 13° 61° (ENE) 17:35:49 467.674
NOAA 18 27 Sep 17:33:17 17:34:39 11° 54° (NE) 17:36:01 137.9125
BRITE-PL 27 Sep 17:36:43 17:41:42 32° 68° (ENE) 17:46:36 437.365/2234.400
SO-50 27 Sep 17:40:17 17:44:34 31° 314° (NW) 17:48:50 436.795
HORYU 2 27 Sep 17:41:04 17:45:21 52° 72° (ENE) 17:49:39 437.375
O/OREOS (USA 219) 27 Sep 17:41:12 17:45:34 40° 61° (ENE) 17:49:54 437.305
STARS 27 Sep 17:57:02 18:01:12 42° 99° (E) 18:05:20 437.465
CUBESAT XI-V 27 Sep 18:12:51 18:16:54 28° 95° (E) 18:20:55 437.345
NOAA 15 27 Sep 18:16:07 18:20:54 36° 67° (ENE) 18:25:43 137.62
ITUPSAT 1 27 Sep 18:16:18 18:16:32 10° 303° (WNW) 18:16:46 437.325
Cosmos 2504 27 Sep 18:24:06 18:28:30 17° 281° (W) 18:33:03 435.465 / 435.565
Cubesat XI-IV 27 Sep 18:30:55 18:35:48 39° 68° (ENE) 18:40:42 437.490
HO-68 27 Sep 18:31:00 18:33:26 12° 48° (NE) 18:35:52 435.675
CUTE-I 27 Sep 18:31:10 18:36:03 39° 68° (ENE) 18:40:58 437.470
MOZHAYETS 4 27 Sep 18:31:21 18:35:16 28° 293° (WNW) 18:39:11
LilacSat-2 27 Sep 18:42:31 18:46:02 39° 72° (ENE) 18:49:34 437.200
KKS-1 27 Sep 18:59:27 19:02:50 22° 295° (WNW) 19:06:12 437.445
GOMX 1 27 Sep 19:05:30 19:10:56 88° 75° (ENE) 19:16:06 467.674
NOAA 18 27 Sep 19:08:54 19:14:20 71° 72° (ENE) 19:19:47 137.9125
CINEMA 3 27 Sep 19:09:58 19:11:14 11° 62° (ENE) 19:12:30 145.822/145.860
RS-15 27 Sep 19:12:42 19:19:59 19° 97° (E) 19:27:26 29.354- 29.394
BRITE-PL 27 Sep 19:14:44 19:20:01 39° 264° (W) 19:25:14 437.365/2234.400
HORYU 2 27 Sep 19:19:41 19:22:13 15° 269° (W) 19:24:44 437.375
O/OREOS (USA 219) 27 Sep 19:21:14 19:24:41 21° 259° (WSW) 19:28:07 437.305
DOVE 4 27 Sep 19:28:55 19:33:56 68° 75° (ENE) 19:38:39 437.250
CUTE 1.7 + AOD 2 27 Sep 19:31:09 19:33:06 13° 62° (ENE) 19:35:03 437.475
CANX-2 27 Sep 19:31:46 19:34:13 15° 64° (ENE) 19:36:41 2200.000
STARS 27 Sep 19:34:09 19:37:15 19° 296° (WNW) 19:40:21 437.465
CUSAT 1 27 Sep 19:37:39 19:43:24 40° 88° (E) 19:50:17 437.405
Cosmos 2499 27 Sep 19:40:42 19:46:28 23° 67° (ENE) 19:52:32 435.465 / 435.565
GONETS M04 27 Sep 19:41:20 19:48:52 30° 67° (ENE) 19:56:17
CUBESAT XI-V 27 Sep 19:50:08 19:54:15 31° 292° (WNW) 19:58:20 437.345
NOAA 15 27 Sep 19:56:02 20:00:41 31° 264° (W) 20:05:22 137.62
Cubesat XI-IV 27 Sep 20:11:26 20:15:56 28° 265° (W) 20:20:29 437.490
CUTE-I 27 Sep 20:11:43 20:16:11 27° 265° (W) 20:20:42 437.470
HO-68 27 Sep 20:12:42 20:19:40 57° 68° (ENE) 20:26:39 435.675
CUBEBUG 2 27 Sep 20:18:01 20:20:27 15° 64° (ENE) 20:22:52 437.445
LilacSat-2 27 Sep 20:18:28 20:20:31 14° 268° (W) 20:22:35 437.200
ISS 27 Sep 20:31:54 20:33:43 14° 131° (SE) 20:35:33 145.825
UWE-3 27 Sep 20:36:33 20:39:04 16° 65° (ENE) 20:41:35 435.000/436.395/437.385
COMPASS 1 27 Sep 20:38:31 20:42:13 32° 70° (ENE) 20:45:57 437.405
CINEMA 3 27 Sep 20:43:20 20:47:50 77° 259° (WSW) 20:52:09 145.822/145.860
STRAND 1 27 Sep 20:45:40 20:50:39 48° 100° (E) 20:55:37 437.568
GOMX 1 27 Sep 20:47:39 20:49:32 12° 272° (W) 20:51:24 467.674
NOAA 18 27 Sep 20:52:20 20:55:31 16° 269° (W) 20:58:43 137.9125
Oscar 11 27 Sep 21:04:07 21:07:17 20° 66° (ENE) 21:10:29 145.826/435.025
CUTE 1.7 + AOD 2 27 Sep 21:04:13 21:08:24 63° 259° (W) 21:12:39 437.475
CANX-2 27 Sep 21:05:31 21:09:38 52° 261° (W) 21:13:49 2200.000
ZACube-1 27 Sep 21:05:47 21:08:51 20° 66° (ENE) 21:11:56 437.345
DANDE 27 Sep 21:05:57 21:11:02 75° 96° (E) 21:17:51 436.750
SEEDS 27 Sep 21:06:02 21:10:15 86° 262° (W) 21:14:30 437.485
DOVE 4 27 Sep 21:09:26 21:11:58 14° 270° (W) 21:14:27 437.250
RS-15 27 Sep 21:18:42 21:30:16 79° 119° (ESE) 21:42:29 29.354- 29.394
CUSAT 1 27 Sep 21:19:25 21:25:22 40° 291° (WNW) 21:32:29 437.405
DELFI C3 27 Sep 21:19:25 21:20:31 11° 62° (ENE) 21:21:38 145.870
AAUSAT CUBESAT 2 27 Sep 21:29:16 21:33:26 88° 261° (W) 21:37:39 437.432
Cosmos 2499 27 Sep 21:32:43 21:40:13 72° 266° (W) 21:48:19 435.465 / 435.565
GONETS M04 27 Sep 21:37:38 21:46:17 63° 269° (W) 21:54:51
AO-85 27 Sep 21:40:07 21:44:53 37° 116° (ESE) 21:49:25 145.980
CUBEBUG 2 27 Sep 21:52:38 21:56:43 48° 261° (W) 22:00:45 437.445
FUNcube-1 27 Sep 21:58:44 22:02:50 73° 77° (ENE) 22:06:59 145.935
HO-68 27 Sep 22:01:44 22:07:43 28° 266° (W) 22:13:45 435.675
ISS 27 Sep 22:06:35 22:09:50 71° 328° (NNW) 22:13:06 145.825
UWE-3 27 Sep 22:11:10 22:15:10 46° 261° (W) 22:19:10 435.000/436.395/437.385
COMPASS 1 27 Sep 22:14:32 22:17:48 22° 266° (W) 22:21:07 437.405
STRAND 1 27 Sep 22:25:33 22:29:31 23° 296° (WNW) 22:33:27 437.568
Oscar 11 27 Sep 22:39:09 22:43:10 38° 262° (W) 22:47:13 145.826/435.025
ZACube-1 27 Sep 22:41:11 22:44:56 34° 263° (W) 22:48:43 437.345
DELFI C3 27 Sep 22:50:49 22:54:47 68° 258° (WSW) 22:58:49 145.870
DANDE 27 Sep 22:51:07 22:54:58 18° 303° (WNW) 22:59:29 436.750
PRISM 27 Sep 22:55:01 22:59:10 76° 286° (WNW) 23:03:16 437.425
HUMSAT D 27 Sep 23:02:09 23:06:13 78° 75° (ENE) 23:10:20 437.325/437.525
UNISAT 6 27 Sep 23:19:08 23:22:52 26° 95° (E) 23:26:38 437.425
AO-85 27 Sep 23:20:43 23:25:22 34° 312° (NW) 23:29:46 145.980
Cosmos 2499 27 Sep 23:29:25 23:32:03 12° 284° (WNW) 23:34:46 435.465 / 435.565
RS-15 27 Sep 23:33:07 23:44:02 40° 325° (NW) 23:55:25 29.354- 29.394
DX 1 27 Sep 23:36:35 23:37:04 10° 59° (ENE) 23:37:33 434.975-435.025
GONETS M04 27 Sep 23:39:11 23:41:09 11° 289° (WNW) 23:43:07
ESTCUBE 1 27 Sep 23:40:41 23:44:46 34° 69° (ENE) 23:48:52 437.505/2401.250
VELOX 1 27 Sep 23:41:35 23:44:38 18° 64° (ENE) 23:47:41 145.980
ISS 27 Sep 23:44:14 23:46:46 20° 347° (NNW) 23:49:19 145.825
AUBIESAT-1 27 Sep 23:45:17 23:47:38 16° 61° (ENE) 23:49:55 437.475
CUBEBUG 1 27 Sep 23:45:23 23:48:57 25° 67° (ENE) 23:52:32 437.445
JAS-2 27 Sep 23:52:18 23:55:37 13° 82° (E) 23:58:51 435.910
ANTELSAT 27 Sep 23:54:04 23:58:26 62° 101° (E) 00:02:54 437.575/2403.000
TIGRISAT 28 Sep 00:14:37 00:19:01 85° 287° (WNW) 00:23:31 435.000
M-CUBED/EXP-1 PRIME 28 Sep 00:20:50 00:24:48 46° 68° (ENE) 00:28:29 437.505
50 SAT 28 Sep 00:21:47 00:25:10 38° 72° (ENE) 00:28:37 437.505
SPROUT 28 Sep 00:26:26 00:30:03 27° 68° (ENE) 00:33:39 437.525
SO-50 28 Sep 00:30:14 00:34:35 41° 49° (NE) 00:38:49 436.795
DUCHIFAT 1 28 Sep 00:32:35 00:35:29 18° 93° (E) 00:38:22 145.980
AISAT 28 Sep 00:32:39 00:37:04 63° 73° (ENE) 00:41:28 437.250
QB50P1 28 Sep 00:34:21 00:37:38 22° 94° (E) 00:40:54 145.935-145.965
UKube-1 28 Sep 00:40:05 00:44:01 35° 69° (ENE) 00:47:59 .
POPSAT HIP 1 28 Sep 00:47:32 00:51:15 29° 97° (E) 00:54:56 437.405
UNISAT 6 28 Sep 00:55:43 00:59:32 30° 291° (WNW) 01:03:26 437.425
NANOSAT C BR1 28 Sep 01:03:40 01:07:41 42° 99° (E) 01:11:41 145.865
DX 1 28 Sep 01:08:10 01:12:33 88° 255° (WSW) 01:16:57 434.975-435.025
VELOX 1 28 Sep 01:16:27 01:20:44 46° 261° (W) 01:25:02 145.980
AUBIESAT-1 28 Sep 01:17:54 01:21:50 46° 255° (WSW) 01:25:30 437.475
ESTCUBE 1 28 Sep 01:17:57 01:21:37 24° 266° (W) 01:25:18 437.505/2401.250
CUBEBUG 1 28 Sep 01:21:08 01:25:06 32° 263° (W) 01:29:04 437.445
ISS 28 Sep 01:21:48 01:24:07 18° 7° (N) 01:26:27 145.825
Cosmos 2491 28 Sep 01:24:51 01:31:07 21° 61° (ENE) 01:37:18 435.465 / 435.565
QB50P2 28 Sep 01:26:57 01:31:12 90° 288° (WNW) 01:35:25 145.880/145.840
POLYITAN 1 28 Sep 01:29:09 01:33:24 89° 267° (W) 01:37:38 437.675
ANTELSAT 28 Sep 01:32:21 01:34:41 14° 297° (WNW) 01:37:02 437.575/2403.000
JAS-2 28 Sep 01:34:03 01:41:57 70° 102° (ESE) 01:49:26 435.910
BEESAT 3 28 Sep 01:42:43 01:46:21 39° 117° (ESE) 01:50:02 437.485
TISAT 1 28 Sep 01:46:22 01:50:18 41° 71° (ENE) 01:54:14 437.305
RS-15 28 Sep 01:51:42 02:01:16 25° 359° (N) 02:10:56 29.354- 29.394
50 SAT 28 Sep 01:56:59 01:58:51 14° 268° (W) 02:00:45 437.505
M-CUBED/EXP-1 PRIME 28 Sep 01:57:04 01:59:26 15° 261° (W) 02:01:44 437.505
SPROUT 28 Sep 02:02:18 02:05:55 27° 264° (W) 02:09:33 437.525
ITUPSAT 1 28 Sep 02:06:33 02:09:24 16° 61° (ENE) 02:12:15 437.325
DUCHIFAT 1 28 Sep 02:07:25 02:11:19 39° 289° (WNW) 02:15:12 145.980
BUGSAT 1 28 Sep 02:09:30 02:13:32 89° 323° (NW) 02:17:34 437.445
QB50P1 28 Sep 02:09:41 02:13:27 32° 290° (WNW) 02:17:13 145.935-145.965
SO-50 28 Sep 02:11:10 02:14:49 24° 247° (WSW) 02:18:24 436.795
AISAT 28 Sep 02:12:00 02:13:56 13° 270° (W) 02:15:51 437.250
Oscar 19 28 Sep 02:14:35 02:18:26 21° 93° (E) 02:22:15 437.125/150
UKube-1 28 Sep 02:16:50 02:20:09 21° 266° (W) 02:23:29 .
SWISSCUBE 28 Sep 02:18:35 02:22:18 23° 65° (ENE) 02:26:01 437.505
POPSAT HIP 1 28 Sep 02:23:29 02:26:54 24° 293° (WNW) 02:30:18 437.405
YUBILEINY 28 Sep 02:27:55 02:33:15 18° 76° (ENE) 02:38:35 435.215
BEESAT 28 Sep 02:31:14 02:35:12 27° 66° (ENE) 02:39:13 436.000
BEESAT 2 28 Sep 02:37:58 02:41:54 79° 122° (ESE) 02:45:53 435.950
NANOSAT C BR1 28 Sep 02:40:17 02:43:05 18° 295° (WNW) 02:45:53 145.865
ISS 28 Sep 02:58:04 03:01:14 42° 27° (NNE) 03:04:23 145.825
Gurwin Techsat 1B 28 Sep 03:12:09 03:17:00 35° 97° (E) 03:21:50 435.225
JAS-2 28 Sep 03:19:51 03:26:15 28° 300° (WNW) 03:32:29 435.910
Cosmos 2491 28 Sep 03:20:20 03:29:14 89° 264° (W) 03:38:04 435.465 / 435.565
BEESAT 3 28 Sep 03:21:03 03:24:08 22° 315° (NW) 03:27:15 437.485
Cosmos 2504 28 Sep 03:21:48 03:23:16 11° 76° (ENE) 03:24:44 435.465 / 435.565
TISAT 1 28 Sep 03:23:20 03:26:07 17° 267° (W) 03:28:55 437.305
ITUPSAT 1 28 Sep 03:42:00 03:46:42 63° 258° (WSW) 03:51:28 437.325
Oscar 19 28 Sep 03:53:03 03:58:01 49° 289° (WNW) 04:02:56 437.125/150
SWISSCUBE 28 Sep 03:55:22 03:59:50 40° 262° (W) 04:04:21 437.505
MOZHAYETS 4 28 Sep 03:56:34 04:00:37 32° 69° (ENE) 04:04:43
RS-15 28 Sep 04:07:15 04:18:36 39° 34° (NNE) 04:29:50 29.354- 29.394
BEESAT 28 Sep 04:08:35 04:12:52 33° 263° (W) 04:17:12 436.000
BEESAT 2 28 Sep 04:18:06 04:20:14 14° 321° (NW) 04:22:23 435.950
YUBILEINY 28 Sep 04:19:55 04:28:44 88° 95° (E) 04:37:32 435.215
KKS-1 28 Sep 04:20:55 04:25:01 38° 70° (ENE) 04:29:08 437.445
ISS 28 Sep 04:34:48 04:37:36 26° 224° (SW) 04:40:24 145.825
PCSat 28 Sep 04:44:00 04:48:33 28° 109° (ESE) 04:53:08 145.827
ITAMSAT 1 28 Sep 04:46:10 04:51:24 71° 103° (ESE) 04:56:36 435.822/435.867
Gurwin Techsat 1B 28 Sep 04:52:13 04:56:52 32° 294° (WNW) 05:01:30 435.225
STARS 28 Sep 04:54:08 04:58:15 41° 71° (ENE) 05:02:22 437.465
AO-7 28 Sep 04:57:58 05:05:52 46° 100° (E) 05:13:42 29.400- 29.500
AIST 2 28 Sep 05:01:21 05:05:27 90° 339° (NNW) 05:09:37 435.215
Cosmos 2504 28 Sep 05:07:54 05:15:16 72° 95° (E) 05:22:25 435.465 / 435.565
CUBESAT XI-V 28 Sep 05:16:40 05:20:45 30° 68° (ENE) 05:24:52 437.345
Cosmos 2491 28 Sep 05:19:16 05:24:45 19° 284° (WNW) 05:30:14 435.465 / 435.565
MOZHAYETS 4 28 Sep 05:33:59 05:37:48 26° 266° (W) 05:41:38
AIST 1 28 Sep 05:58:02 06:02:11 43° 93° (E) 06:06:20
KKS-1 28 Sep 05:58:20 06:01:42 21° 266° (W) 06:05:05 437.445
DANDE 28 Sep 06:01:41 06:06:45 17° 57° (ENE) 06:11:43 436.750
CUSAT 1 28 Sep 06:11:09 06:18:08 34° 67° (ENE) 06:24:10 437.405
AO-85 28 Sep 06:11:26 06:15:16 33° 48° (NE) 06:18:53 145.980
RS-15 28 Sep 06:20:09 06:32:35 83° 240° (WSW) 06:44:42 29.354- 29.394
YUBILEINY 28 Sep 06:20:34 06:26:46 21° 298° (WNW) 06:32:59 435.215
PCSat 28 Sep 06:26:34 06:31:44 44° 307° (NW) 06:36:56 145.827
ITAMSAT 1 28 Sep 06:27:05 06:30:16 17° 300° (WNW) 06:33:27 435.822/435.867
STRAND 1 28 Sep 06:28:22 06:28:56 10° 56° (NE) 06:29:31 437.568
STARS 28 Sep 06:31:40 06:34:46 19° 267° (W) 06:37:53 437.465
NOAA 15 28 Sep 06:32:35 06:34:26 12° 88° (E) 06:36:17 137.62
AIST 2 28 Sep 06:42:28 06:44:34 13° 322° (NW) 06:46:40 435.215
Cubesat XI-IV 28 Sep 06:48:44 06:51:31 14° 90° (E) 06:54:17 437.490
CUTE-I 28 Sep 06:48:46 06:51:36 14° 90° (E) 06:54:25 437.470
AO-7 28 Sep 06:50:54 06:58:33 44° 299° (WNW) 07:06:13 29.400- 29.500
CUBESAT XI-V 28 Sep 06:54:01 06:58:05 29° 265° (W) 07:02:12 437.345
Cosmos 2504 28 Sep 07:04:05 07:09:22 21° 294° (WNW) 07:14:34 435.465 / 435.565
HORYU 2 28 Sep 07:07:22 07:11:50 85° 288° (WNW) 07:16:19 437.375
GOMX 1 28 Sep 07:07:59 07:11:24 22° 93° (E) 07:14:41 467.674
BRITE-PL 28 Sep 07:19:13 07:24:05 74° 101° (E) 07:28:31 437.365/2234.400
DOVE 4 28 Sep 07:28:45 07:31:04 14° 91° (E) 07:33:22 437.250
NOAA 18 28 Sep 07:30:39 07:35:18 28° 95° (E) 07:39:55 137.9125
AIST 1 28 Sep 07:37:05 07:40:00 17° 290° (WNW) 07:42:54
DANDE 28 Sep 07:42:41 07:51:06 70° 77° (ENE) 07:58:56 436.750
LilacSat-2 28 Sep 07:48:55 07:52:42 56° 101° (E) 07:56:28 437.200
AO-85 28 Sep 07:52:13 07:55:30 24° 247° (WSW) 07:58:39 145.980
CUSAT 1 28 Sep 07:53:02 08:00:26 50° 269° (W) 08:06:40 437.405
O/OREOS (USA 219) 28 Sep 07:54:05 07:58:20 40° 106° (ESE) 08:02:38 437.305
STRAND 1 28 Sep 08:02:08 08:07:12 74° 73° (ENE) 08:12:19 437.568
NOAA 15 28 Sep 08:09:33 08:14:53 87° 285° (WNW) 08:20:10 137.62
PCSat 28 Sep 08:16:01 08:16:37 10° 329° (NNW) 08:17:12 145.827
Cosmos 2499 28 Sep 08:21:52 08:25:29 15° 78° (ENE) 08:29:05 435.465 / 435.565
Cubesat XI-IV 28 Sep 08:26:47 08:32:09 76° 286° (WNW) 08:37:30 437.490
CUTE-I 28 Sep 08:26:50 08:32:12 75° 286° (WNW) 08:37:32 437.470
RS-15 28 Sep 08:34:47 08:43:08 22° 262° (W) 08:51:23 29.354- 29.394
CINEMA 3 28 Sep 08:37:39 08:40:53 21° 94° (E) 08:44:09 145.822/145.860
GONETS M04 28 Sep 08:43:45 08:51:17 33° 83° (E) 08:58:49
GOMX 1 28 Sep 08:45:39 08:49:36 32° 291° (WNW) 08:53:22 467.674
AO-7 28 Sep 08:47:54 08:49:09 10° 322° (NW) 08:50:25 29.400- 29.500
CUTE 1.7 + AOD 2 28 Sep 08:48:59 08:52:17 21° 93° (E) 08:55:34 437.475
CANX-2 28 Sep 08:50:05 08:53:40 25° 95° (E) 08:57:13 2200.000
SEEDS 28 Sep 08:50:27 08:52:58 15° 91° (E) 08:55:29 437.485
BRITE-PL 28 Sep 08:59:37 09:01:49 13° 301° (WNW) 09:03:56 437.365/2234.400
DOVE 4 28 Sep 09:05:04 09:09:06 46° 288° (WNW) 09:13:03 437.250
NOAA 18 28 Sep 09:10:58 09:16:03 41° 292° (WNW) 09:21:09 137.9125
AAUSAT CUBESAT 2 28 Sep 09:12:18 09:14:31 14° 91° (E) 09:16:42 437.432
LilacSat-2 28 Sep 09:25:06 09:26:32 12° 296° (WNW) 09:27:58 437.200
DANDE 28 Sep 09:26:27 09:33:11 28° 277° (W) 09:39:35 436.750
HO-68 28 Sep 09:26:57 09:33:58 56° 101° (ESE) 09:40:57 435.675
O/OREOS (USA 219) 28 Sep 09:34:17 09:37:54 23° 305° (NW) 09:41:33 437.305
CUBEBUG 2 28 Sep 09:42:22 09:46:10 30° 97° (E) 09:50:02 437.445
STRAND 1 28 Sep 09:44:28 09:46:55 13° 271° (W) 09:49:23 437.568
PRISM 28 Sep 09:44:32 09:48:43 83° 73° (ENE) 09:52:54 437.425
FUNcube-1 28 Sep 09:47:15 09:49:25 13° 91° (E) 09:51:35 145.935
NOAA 15 28 Sep 09:51:34 09:53:51 13° 303° (WNW) 09:56:07 137.62
COMPASS 1 28 Sep 09:55:26 09:59:36 54° 100° (E) 10:03:43 437.405
BEESAT 3 28 Sep 09:59:02 10:02:37 31° 49° (NE) 10:06:10 437.485
UWE-3 28 Sep 09:59:39 10:03:30 31° 96° (E) 10:07:25 435.000/436.395/437.385
Cubesat XI-IV 28 Sep 10:09:45 10:11:18 11° 304° (NW) 10:12:50 437.490
CUTE-I 28 Sep 10:09:52 10:11:19 11° 304° (NW) 10:12:45 437.470
Cosmos 2499 28 Sep 10:10:20 10:17:30 88° 273° (W) 10:24:37 435.465 / 435.565
CINEMA 3 28 Sep 10:14:22 10:18:05 32° 290° (WNW) 10:21:52 145.822/145.860
UNISAT 6 28 Sep 10:19:00 10:22:28 25° 67° (ENE) 10:25:56 437.425
CUTE 1.7 + AOD 2 28 Sep 10:24:17 10:28:12 35° 290° (WNW) 10:32:05 437.475
SEEDS 28 Sep 10:24:49 10:28:56 48° 287° (WNW) 10:33:01 437.485
Oscar 11 28 Sep 10:25:22 10:29:24 35° 97° (E) 10:33:24 145.826/435.025
CANX-2 28 Sep 10:25:45 10:29:30 29° 291° (WNW) 10:33:14 2200.000
ZACube-1 28 Sep 10:27:58 10:32:03 39° 98° (E) 10:36:12 437.345
DELFI C3 28 Sep 10:28:52 10:31:09 15° 91° (E) 10:33:25 145.870
GONETS M04 28 Sep 10:38:58 10:47:37 57° 284° (WNW) 10:56:20
AAUSAT CUBESAT 2 28 Sep 10:46:12 10:50:17 51° 287° (WNW) 10:54:20 437.432
HUMSAT D 28 Sep 10:46:33 10:48:18 12° 90° (E) 10:50:02 437.325/437.525
ANTELSAT 28 Sep 10:53:32 10:57:42 57° 74° (ENE) 11:01:53 437.575/2403.000
BEESAT 2 28 Sep 10:55:13 10:59:11 57° 53° (NE) 11:03:08 435.950
TIGRISAT 28 Sep 11:13:51 11:18:07 90° 260° (W) 11:22:23 435.000
HO-68 28 Sep 11:15:16 11:21:19 31° 300° (WNW) 11:27:22 435.675
CUBEBUG 2 28 Sep 11:19:10 11:22:41 25° 292° (WNW) 11:26:15 437.445
FUNcube-1 28 Sep 11:21:43 11:25:58 57° 286° (WNW) 11:30:18 145.935
DUCHIFAT 1 28 Sep 11:25:43 11:28:13 16° 64° (ENE) 11:30:42 145.980
QB50P1 28 Sep 11:27:52 11:30:48 19° 65° (ENE) 11:33:45 145.935-145.965
COMPASS 1 28 Sep 11:32:23 11:34:42 15° 296° (WNW) 11:37:00 437.405
UWE-3 28 Sep 11:36:19 11:39:50 25° 292° (WNW) 11:43:25 435.000/436.395/437.385
BEESAT 3 28 Sep 11:36:50 11:40:10 26° 246° (WSW) 11:43:27 437.485
POPSAT HIP 1 28 Sep 11:40:52 11:44:17 25° 68° (ENE) 11:47:42 437.405
AIST 2 28 Sep 11:45:21 11:46:56 12° 36° (NE) 11:48:31 435.215
JAS-2 28 Sep 11:46:49 11:52:40 34° 62° (ENE) 11:59:05 435.910
UNISAT 6 28 Sep 11:55:20 11:59:05 29° 264° (W) 12:02:50 437.425
NANOSAT C BR1 28 Sep 11:56:23 12:00:11 34° 70° (ENE) 12:03:59 145.865
Oscar 11 28 Sep 12:01:57 12:05:19 22° 294° (WNW) 12:08:40 145.826/435.025
DELFI C3 28 Sep 12:02:22 12:06:13 44° 288° (WNW) 12:10:01 145.870
ZACube-1 28 Sep 12:04:56 12:08:05 20° 294° (WNW) 12:11:17 437.345
Cosmos 2499 28 Sep 12:07:49 12:11:44 15° 299° (WNW) 12:15:40 435.465 / 435.565
PHONESAT 2.4 28 Sep 12:17:16 12:19:57 33° 163° (SSE) 12:22:39 2401.200-2431.200
QB50P2 28 Sep 12:19:52 12:24:03 73° 75° (ENE) 12:28:16 145.880/145.840
HUMSAT D 28 Sep 12:20:04 12:24:16 60° 286° (WNW) 12:28:30 437.325/437.525
POLYITAN 1 28 Sep 12:22:05 12:26:16 73° 75° (ENE) 12:30:27 437.675
AISAT 28 Sep 12:24:35 12:25:47 11° 89° (E) 12:26:58 437.250
ANTELSAT 28 Sep 12:32:55 12:34:48 13° 270° (W) 12:36:40 437.575/2403.000
BEESAT 2 28 Sep 12:34:31 12:36:32 14° 251° (WSW) 12:38:33 435.950
GONETS M04 28 Sep 12:44:09 12:46:46 11° 308° (NW) 12:49:25
DX 1 28 Sep 12:57:02 12:59:31 15° 92° (E) 13:01:59 434.975-435.025
DUCHIFAT 1 28 Sep 12:59:28 13:03:30 48° 260° (W) 13:07:34 145.980
BUGSAT 1 28 Sep 12:59:28 13:03:33 67° 74° (ENE) 13:07:36 437.445
QB50P1 28 Sep 13:02:21 13:06:18 39° 262° (W) 13:10:16 145.935-145.965
VELOX 1 28 Sep 13:05:55 13:09:47 30° 96° (E) 13:13:38 145.980
CUBEBUG 1 28 Sep 13:08:31 13:12:39 42° 99° (E) 13:16:44 437.445
ESTCUBE 1 28 Sep 13:08:33 13:13:05 67° 102° (ESE) 13:17:35 437.505/2401.250
